Meteo Giornale » Osservazioni meteo Belgio » Charleroi-Gosselies

ore: 19:50 - Osservazioni Meteo Charleroi-Gosselies
Lat. 50° 28' N Lon. 4° 27' E Alt. 187 metri s.l.m.

poco_nuvoloso

19 °C

Poco Nuvoloso

Temp. 24 Ore

15 °C

22 °C

Ovest

9.3 Km/h

Dew point 9 °C

Umidità 52 %

Visibilità  10 Km

Il sole sorge alle ore 06:56

Il sole tramonta alle ore 20:27

Data e Ora Cielo e Fenomeni T °C DP °C Um. % Pres. hPa Vis. km Vento km/h
Oggi h: 19:50 poco_nuvoloso Poco Nuvoloso 19 9 52 1021 10 O 9.3
Oggi h: 19:20 poco_nuvoloso Poco Nuvoloso 20 9 49 1021 10 O/SO 16.7
Oggi h: 18:50 poco_nuvoloso Poco Nuvoloso 21 9 46 1021 10 O/SO 13
Oggi h: 18:20 poco_nuvoloso Poco Nuvoloso 21 9 46 1021 10 O/SO 13
Oggi h: 17:50 poco_nuvoloso Poco Nuvoloso 21 9 46 1021 10 O/SO 14.8
Oggi h: 17:20 poco_nuvoloso Poco Nuvoloso 20 9 49 1021 10 O/SO 20.3
Oggi h: 16:50 poco_nuvoloso Poco Nuvoloso 22 10 46 1021 10 O/SO 20.3
Oggi h: 16:20 poco_nuvoloso Poco Nuvoloso 22 10 46 1021 10 O/SO 14.8
Oggi h: 15:50 poco_nuvoloso Poco Nuvoloso 22 10 46 1021 10 O 16.7
Oggi h: 15:20 poco_nuvoloso Poco Nuvoloso 21 11 52 1021 10 O/SO 18.5
Oggi h: 14:50 poco_nuvoloso Poco Nuvoloso 22 10 46 1021 10 O/SO 18.5
Oggi h: 14:20 poco_nuvoloso Poco Nuvoloso 20 12 59 1021 10 O 20.3
Oggi h: 13:50 poco_nuvoloso Poco Nuvoloso 20 12 59 1021 10 O/SO 22.2
Oggi h: 13:20 poco_nuvoloso Poco Nuvoloso 21 12 56 1021 10 SO 16.7
Oggi h: 12:50 nuvoloso Nuvoloso 19 12 63 1021 10 O 14.8
Oggi h: 12:20 nuvoloso Nuvoloso 20 14 68 1021 10 O/SO 14.8
Oggi h: 11:50 nuvoloso Nuvoloso 19 14 72 1022 10 O/SO 11.1
Oggi h: 11:20 molto_nuvoloso Molto Nuvoloso 18 14 77 1021 10 O 13
Oggi h: 10:50 molto_nuvoloso Molto Nuvoloso 17 14 82 1021 10 SO 16.7
Oggi h: 10:20 molto_nuvoloso Molto Nuvoloso 17 14 82 1021 10 SO 16.7
Oggi h: 09:50 molto_nuvoloso Molto Nuvoloso 17 14 82 1021 10 SO 18.5
Oggi h: 09:20 molto_nuvoloso Molto Nuvoloso 16 14 87 1021 10 SO 16.7
Oggi h: 08:50 molto_nuvoloso Molto Nuvoloso 16 14 87 1021 10 SO 14.8
Oggi h: 08:20 molto_nuvoloso Molto Nuvoloso 15 14 93 1020 10 SO 14.8
Oggi h: 07:50 coperto Coperto 15 14 93 1020 10 SO 14.8
Oggi h: 07:20 coperto Coperto 15 13 87 1020 10 SO 14.8
Oggi h: 06:50 coperto Coperto 15 14 93 1020 10 SO 16.7
Oggi h: 06:20 coperto Coperto 15 13 87 1020 10 SO 14.8
Oggi h: 05:50 coperto Coperto 15 13 87 1019 10 SO 14.8
Oggi h: 05:20 molto_nuvoloso Molto Nuvoloso 15 13 87 1019 10 SO 16.7
Oggi h: 04:50 molto_nuvoloso Molto Nuvoloso 15 13 87 1019 10 SO 14.8
Oggi h: 04:20 molto_nuvoloso Molto Nuvoloso 15 13 87 1019 10 SO 14.8
Oggi h: 03:50 molto_nuvoloso Molto Nuvoloso 15 13 87 1019 10 SO 13
Oggi h: 03:20 molto_nuvoloso Molto Nuvoloso 15 13 87 1019 10 SO 13
Oggi h: 02:50 nuvoloso Nuvoloso 15 13 87 1019 10 SO 16.7
Oggi h: 02:20 nuvoloso Nuvoloso 15 13 87 1019 10 SO 16.7
Oggi h: 01:50 poco_nuvoloso Poco Nuvoloso 15 13 87 1019 10 SO 18.5
Oggi h: 01:20 poco_nuvoloso Poco Nuvoloso 15 13 87 1019 10 SO 16.7
Oggi h: 00:50 sereno Sereno 15 13 87 1019 10 SO 18.5
Oggi h: 00:20 sereno Sereno 15 13 87 1019 10 O/SO 14.8
Ieri h: 23:50 sereno Sereno 16 13 82 1019 10 O/SO 16.7
Ieri h: 23:20 sereno Sereno 16 13 82 1019 10 O/SO 16.7
Ieri h: 22:50 sereno Sereno 16 13 82 1019 10 O/SO 16.7
Ieri h: 22:20 sereno Sereno 17 13 77 1018 10 O/SO 16.7
Ieri h: 21:50 sereno Sereno 17 13 77 1018 10 O/SO 14.8
Ieri h: 21:20 poco_nuvoloso Poco Nuvoloso 17 13 77 1018 10 O/SO 14.8
Ieri h: 20:50 poco_nuvoloso Poco Nuvoloso 18 13 72 1017 10 O/SO 16.7